Theta_e
311 311 312 311 311 311 312 312 312 313 313 312 312 312 312 312 312 304 297 305 308 314 314 306 310 309 313 312 316 318 303 300 302 303 305 309 308 312 314 312 315 322 324 328 331
311 311 311 311 311 311 311 312 312 312 312 311 311 312 311 310 302 298 307 312 312 312 300 300 303 307 304 310 312 309 302 303 308 308 306 309 309 309 309 310 313 321 327 330 330
310 310 310 310 311 311 312 312 311 311 310 310 311 311 311 308 295 294 310 311 311 311 301 303 305 304 301 305 309 309 303 309 310 311 311 309 309 310 307 306 312 317 323 327 326
309 309 309 310 311 311 311 311 310 310 309 310 311 310 311 301 283 298 309 309 310 304 300 301 303 299 297 298 306 303 309 309 310 312 311 308 310 308 307 308 315 320 326 326 324
308 308 309 310 311 310 310 309 309 308 309 310 310 310 304 293 291 302 309 306 301 299 297 296 297 298 294 296 301 302 306 309 311 311 311 312 307 307 308 310 315 322 326 326 324
308 308 310 310 310 309 308 309 307 309 309 309 309 310 296 286 301 301 300 300 298 297 295 295 296 300 297 297 297 303 303 306 309 308 309 308 307 308 308 311 310 315 323 325 325
307 308 309 310 309 308 308 307 307 309 307 309 309 301 293 290 300 301 301 299 299 298 294 296 295 296 298 295 300 301 297 300 303 306 306 308 303 304 309 312 310 311 313 320 325
308 309 309 310 309 307 308 306 304 306 305 307 309 301 289 300 301 299 300 298 300 300 297 298 298 295 295 298 295 293 294 290 300 304 306 306 297 306 310 310 309 308 309 313 320
309 310 310 310 308 307 307 304 304 306 305 306 300 297 287 302 295 299 299 296 297 298 298 299 297 291 292 289 285 288 283 286 290 299 303 303 298 306 310 310 309 308 309 312 314
311 310 310 310 308 306 307 306 303 305 302 300 297 291 292 290 296 297 299 298 295 294 294 293 292 287 287 284 277 281 282 285 285 293 295 297 300 305 308 308 308 310 310 310 313
310 310 310 309 306 306 303 301 294 293 294 289 289 289 291 295 299 295 298 295 294 291 283 288 281 279 281 283 283 283 283 283 288 293 294 295 295 299 303 305 305 307 310 311 311
310 310 310 309 304 305 301 292 292 293 287 292 292 293 294 295 288 292 298 289 288 282 285 283 279 284 286 285 282 281 279 280 284 289 289 288 288 292 295 299 303 304 307 309 310
310 310 309 306 303 302 296 295 300 299 288 287 291 291 290 292 287 288 293 290 285 283 282 279 282 285 283 282 280 280 279 279 280 284 286 284 283 287 292 295 297 301 304 306 308
310 308 305 305 299 299 294 299 301 299 283 281 285 289 291 291 286 294 294 290 286 281 282 282 285 283 281 280 282 277 284 284 282 279 274 283 274 282 287 290 293 297 300 303 304
309 305 303 305 300 296 297 299 299 295 271 283 284 294 291 286 287 288 294 290 282 282 282 279 281 281 279 281 284 279 285 282 282 281 278 278 274 279 286 285 290 294 297 301 304
309 304 303 302 302 299 300 299 294 282 270 275 284 283 283 286 285 288 287 291 289 283 283 282 287 284 283 285 285 286 282 282 281 278 271 277 277 275 281 285 288 294 295 299 303
307 302 302 302 296 300 299 293 283 274 279 274 275 282 281 281 281 283 281 280 278 271 273 279 281 285 286 281 284 283 277 268 265 267 267 278 277 278 284 287 288 290 293 297 298
304 302 301 299 300 299 295 286 272 273 274 282 280 281 278 279 280 280 279 277 282 279 274 271 269 281 286 282 278 280 278 269 264 268 270 277 274 277 287 290 293 294 293 297 298
303 301 300 299 300 297 289 279 277 277 281 279 280 276 274 279 277 278 276 276 280 280 269 269 272 281 282 283 283 278 271 280 273 274 269 273 278 283 287 289 289 292 293 294 296
300 297 295 299 299 294 283 281 276 282 283 281 275 277 270 272 274 275 275 279 279 283 281 276 268 278 281 284 284 281 283 272 273 261 260 271 273 274 283 286 289 289 289 292 294
298 290 294 298 296 285 279 279 277 282 284 280 277 275 276 273 274 272 273 277 281 282 283 280 272 273 277 274 276 277 277 279 277 273 269 268 271 283 282 283 283 287 289 289 292
296 284 294 297 284 283 280 277 281 281 281 281 281 279 277 278 273 274 272 277 284 284 278 279 272 269 270 279 281 279 277 277 271 271 274 273 272 284 284 285 287 287 288 290 292
288 287 294 293 280 280 277 277 280 279 281 279 278 281 282 277 271 277 278 283 283 281 277 277 270 264 268 273 279 273 279 279 277 276 270 268 271 284 284 284 285 286 287 289 290
289 281 285 288 282 280 277 276 276 282 281 282 280 280 279 277 279 272 277 281 283 282 286 284 274 270 266 268 272 271 273 275 270 268 269 270 272 277 279 280 283 285 287 288 289
292 285 284 277 279 279 279 279 277 276 279 281 279 279 277 269 275 275 278 279 282 284 282 279 269 271 274 275 274 273 273 273 271 272 269 271 272 276 279 280 282 284 286 287 288
285 283 280 275 279 279 279 277 278 278 278 275 276 280 279 274 275 274 276 277 277 279 277 280 272 273 271 275 275 272 274 273 274 274 273 274 273 280 282 283 282 284 286 286 288
294 289 287 280 279 278 279 278 279 280 281 282 279 279 278 279 282 282 282 282 281 278 277 276 272 269 267 274 273 267 271 272 273 275 275 271 276 281 281 283 284 285 286 287 289
Wind_Speed
16 17 17 19 18 18 19 19 20 21 21 21 21 20 19 19 16 16 13 13 14 23 22 17 13 9 8 6 9 3 5 10 16 16 11 6 6 6 2 4 1 4 8 12 18
15 16 17 17 17 18 18 19 18 18 19 20 20 20 18 17 5 18 15 20 20 22 18 16 15 14 6 7 6 8 7 14 14 14 10 12 8 8 5 8 5 7 11 14 15
16 16 15 16 19 19 18 18 19 20 20 18 17 19 21 12 3 9 19 22 24 20 15 14 11 11 9 10 12 8 13 12 17 20 16 10 3 5 4 7 9 14 15 15 14
13 15 17 15 15 16 19 19 19 18 16 16 17 19 23 6 7 11 19 22 23 19 15 12 8 7 7 11 14 19 16 19 20 16 12 5 6 9 8 10 6 6 20 17 15
13 13 15 17 19 18 17 17 18 15 13 14 17 19 11 9 9 14 17 16 16 17 16 14 12 10 12 11 14 18 17 19 16 16 11 6 9 9 13 9 6 8 13 16 14
13 14 16 17 16 17 18 20 14 12 13 11 12 17 10 14 13 16 15 13 12 12 16 14 10 12 10 11 13 8 12 15 16 16 10 10 11 12 8 10 5 9 10 12 15
7 8 10 13 15 16 19 16 13 14 15 11 12 8 17 10 12 11 14 15 9 13 14 13 13 12 14 8 10 12 9 12 16 10 10 6 19 19 11 13 11 11 9 10 15
8 9 11 15 18 20 22 13 12 10 11 13 11 3 5 7 13 15 15 14 15 14 6 10 8 11 10 11 9 12 10 11 8 15 11 9 16 15 15 16 15 11 11 11 13
8 10 14 18 20 22 21 11 11 13 7 14 5 2 5 8 18 13 11 16 15 10 14 8 6 7 10 7 7 9 9 14 16 18 13 21 7 19 19 17 15 14 10 10 11
10 12 14 17 19 22 20 7 10 10 3 4 11 2 7 14 14 11 15 17 12 10 10 5 4 5 6 6 8 9 9 11 17 11 21 20 20 15 13 11 14 16 15 11 11
11 12 13 14 16 21 15 2 3 1 9 8 5 3 8 13 6 11 16 18 12 9 7 6 5 3 9 7 10 12 11 14 16 13 7 6 9 11 10 16 14 13 15 17 12
10 11 11 11 10 17 8 6 5 2 3 5 6 4 7 8 7 13 14 10 10 11 12 7 3 9 11 10 9 9 10 13 15 14 11 9 13 13 17 17 16 15 14 8 7
8 9 10 10 7 3 10 8 5 6 4 4 3 4 7 10 6 10 11 9 8 9 12 10 6 9 9 10 11 9 9 8 10 18 14 11 16 12 16 20 20 20 18 13 11
6 6 9 12 3 2 4 5 4 4 2 8 5 5 7 8 2 6 7 5 5 7 11 7 6 10 9 10 9 9 11 10 8 4 5 5 10 6 11 15 22 21 20 17 15
2 3 6 10 5 3 4 5 4 2 2 5 4 4 9 5 7 1 1 4 7 10 5 9 12 10 10 8 6 6 10 11 13 11 8 10 8 6 10 17 14 19 25 21 20
2 2 6 2 4 3 4 4 3 1 2 4 5 6 8 3 7 5 5 3 7 7 9 12 13 9 6 12 10 9 10 11 10 7 7 12 11 6 11 12 8 8 7 19 20
8 6 3 3 3 4 4 3 3 4 1 6 3 5 7 5 7 7 10 7 3 6 6 13 4 5 3 9 7 5 5 4 2 2 6 4 12 14 13 13 6 7 7 6 7
10 4 6 5 3 5 3 2 3 1 1 2 3 6 2 6 4 9 6 5 3 4 5 5 7 2 3 3 6 12 6 4 6 2 11 16 7 6 12 14 2 5 6 5 8
10 2 3 3 4 3 1 2 2 3 3 2 6 1 2 2 1 6 5 2 3 3 0 4 5 16 14 10 6 3 3 8 9 12 5 6 12 14 16 4 2 8 15 14 14
2 2 3 4 4 1 3 3 2 2 3 1 2 2 2 1 3 4 3 2 2 3 2 4 8 9 9 9 9 10 7 4 3 3 5 6 10 7 10 14 14 12 8 7 8
2 0 2 3 3 4 2 3 1 3 2 1 3 2 5 2 3 3 6 4 4 5 4 3 3 6 9 4 7 6 5 4 4 4 5 9 5 2 4 12 9 7 6 3 3
1 1 2 2 1 1 2 3 2 2 1 2 2 4 6 5 4 4 5 4 4 3 4 6 4 5 10 18 17 13 14 10 4 8 6 12 13 17 15 12 16 17 14 8 5
3 2 1 3 4 3 2 2 3 2 4 3 3 6 2 3 3 7 5 3 4 4 3 1 5 6 10 6 5 2 3 6 8 9 11 8 8 9 19 20 16 14 9 9 5
2 2 1 1 1 1 4 3 3 5 1 4 3 2 2 5 8 6 5 5 6 6 12 8 4 9 11 13 10 21 20 16 3 7 13 17 26 26 24 22 22 14 14 12 6
4 4 0 4 6 4 4 7 4 5 4 4 4 8 7 4 4 9 10 10 10 11 8 5 7 8 15 18 19 23 23 22 18 22 17 29 25 28 25 23 16 16 19 18 10
6 4 2 3 2 7 6 7 9 5 8 6 7 6 12 8 10 12 9 5 8 4 5 7 13 7 17 16 19 27 27 26 28 28 21 27 33 31 25 21 22 21 20 17 8
5 3 3 7 4 4 7 7 8 7 8 7 10 5 9 12 10 13 13 13 13 11 9 9 3 4 14 9 13 18 17 16 15 18 17 20 28 21 21 19 15 14 14 8 5
Wind_Direction
31 25 26 23 18 13 6 5 2 358 357 356 352 349 348 344 319 41 37 338 329 327 320 317 326 282 282 251 240 251 247 248 248 256 263 280 159 176 43 321 72 87 51 106 128
30 22 19 13 14 8 0 359 357 354 350 350 346 342 340 339 308 58 359 347 340 334 326 334 326 327 289 230 236 206 219 235 253 258 252 257 178 213 168 212 197 106 97 113 137
20 16 5 11 10 3 358 351 355 353 346 343 344 337 329 318 269 30 355 347 338 323 312 290 289 290 262 253 219 218 236 244 242 260 272 285 230 225 206 254 199 176 150 144 159
17 14 5 6 359 359 356 351 347 344 340 338 341 338 324 280 45 4 357 344 331 337 320 321 303 253 259 242 236 246 236 234 260 266 268 270 299 285 208 250 5 36 157 150 166
15 7 3 8 358 358 345 340 346 352 346 350 345 335 332 41 22 343 346 346 330 341 344 328 302 299 252 278 257 249 251 258 258 264 281 275 261 264 278 236 117 98 152 157 174
11 5 3 360 349 352 349 350 352 349 352 348 343 322 8 58 335 345 346 341 355 341 334 335 333 324 298 269 291 329 323 286 281 295 266 247 250 246 253 266 203 157 171 168 180
19 7 1 356 357 355 353 352 349 349 348 340 337 2 60 29 344 349 347 340 341 335 316 316 324 312 326 286 321 287 296 281 259 262 264 283 251 245 244 257 250 174 193 191 188
8 9 5 2 359 359 0 356 337 313 340 311 313 331 66 4 354 354 343 348 337 316 307 298 296 292 271 294 307 275 249 261 227 237 230 255 256 240 234 250 238 234 195 197 192
359 3 7 8 1 355 352 338 309 317 301 302 324 61 38 331 359 340 328 340 328 324 310 282 286 266 307 268 279 232 262 239 245 250 233 219 247 236 262 233 234 239 229 207 188
358 3 9 9 1 347 336 298 319 322 341 274 17 74 24 353 337 318 358 329 309 301 295 276 256 261 259 243 260 267 263 256 258 241 240 244 238 250 281 277 239 228 237 238 196
4 6 9 10 4 350 338 130 323 136 37 53 349 49 353 347 311 6 355 335 346 330 3 315 299 312 0 356 333 327 321 309 304 315 352 288 312 299 282 285 284 284 232 231 232
359 3 5 3 2 10 7 53 50 315 359 53 21 1 3 357 334 353 358 7 337 338 354 349 324 7 337 337 328 309 303 300 297 305 314 319 294 292 286 287 285 285 291 275 253
354 358 357 346 339 342 60 46 348 331 279 64 52 341 333 324 354 343 352 337 327 336 347 315 345 346 328 325 309 292 276 277 290 317 314 306 284 267 265 271 281 274 276 288 294
340 8 357 333 303 318 56 5 347 320 86 347 9 60 329 315 259 38 3 346 325 331 341 287 345 331 317 310 318 300 352 330 297 281 264 355 290 292 306 257 245 244 262 264 275
338 50 16 16 319 49 345 333 337 250 23 335 5 323 321 4 293 122 54 310 303 325 325 280 329 342 323 301 351 282 357 316 305 296 271 256 277 227 224 260 265 235 237 235 241
130 71 333 261 97 17 329 319 268 21 303 337 349 354 360 337 336 303 337 225 238 289 273 271 266 272 275 308 302 296 298 288 261 265 256 235 231 200 211 235 242 283 277 225 228
116 75 28 9 28 332 308 248 9 82 186 312 331 337 348 312 320 338 325 315 10 345 340 311 330 145 306 297 244 239 295 303 308 224 240 246 222 247 302 284 285 292 296 15 8
133 124 61 58 1 321 255 39 57 211 241 37 245 306 321 17 316 333 293 328 102 353 303 340 324 169 109 288 302 300 258 241 301 290 313 308 260 258 226 249 350 272 241 26 10
155 132 124 23 351 299 23 35 224 162 135 303 309 312 230 113 245 320 288 295 358 35 262 324 260 336 306 286 293 263 265 265 281 286 270 223 293 304 292 275 250 11 32 21 6
186 213 75 333 333 65 68 264 196 358 115 154 246 157 284 84 1 11 297 222 292 107 12 325 298 269 296 322 260 234 269 317 242 275 262 254 248 267 31 35 23 14 17 11 359
207 74 77 325 290 56 187 250 304 232 282 232 282 261 230 294 173 287 272 269 241 164 195 293 217 294 335 266 278 310 275 254 281 260 272 282 258 141 90 350 326 303 317 299 278
105 225 53 276 57 98 202 167 356 185 300 314 312 295 277 173 247 245 245 212 229 251 241 202 257 290 264 273 269 266 282 300 298 303 286 277 267 289 307 342 333 321 309 299 254
150 179 146 281 186 185 125 235 222 208 183 176 241 246 223 281 278 222 254 272 289 235 247 268 265 310 319 337 12 37 305 296 301 286 262 289 274 289 308 306 304 295 300 304 291
119 212 184 225 47 163 144 225 215 179 248 196 224 302 278 248 221 264 247 264 209 227 260 283 229 227 252 254 301 294 286 278 210 263 279 262 270 283 282 284 286 305 315 312 297
148 247 278 177 223 186 157 149 188 192 188 217 236 196 184 242 266 244 249 265 252 243 211 206 256 253 258 270 276 272 271 271 257 254 249 266 269 263 269 274 291 298 293 288 285
145 163 260 119 192 150 207 212 192 199 156 220 216 194 203 206 202 279 303 290 254 283 232 193 271 284 278 270 272 273 268 261 258 254 250 252 264 261 283 287 274 270 273 271 263
127 73 269 153 190 169 195 203 207 164 228 188 203 220 244 245 241 259 260 262 251 264 271 272 253 294 279 283 310 286 259 248 256 254 251 252 255 278 270 266 265 257 265 257 271